Погода в Марьяновке

Россия / Приморский край     44°47′37″N   133°43′57″E
темп.,
°C
ветер,
м/с
пор.,
м/с
влажн.,
%
обл.,
%
осадки,
мм/ч
давл.,
гПа
погр.,
м
15 мая, сб
сб1501:00+13юв2261100 0.0 101048
04:00+11вюв2485100 0.9 100971
07:00+12ююв3879100 0.1 1008270
10:00+20ююз51252100 0.1 1007972
13:00+24юз6114669 0.0 10041809
16:00+25юз6134699 0.0 10022078
19:00+12сз2796100 3.2 1007558
22:00+11зюз2397100 9.9 1010339
16 мая, вс
вс1601:00+9ю2498100 2.4 1010198
04:00+9ююз139787 2.5 1009136
07:00+9ю1394100 0.0 100997
10:00+15з126279 0.0 1008714
13:00+19сз343828 0.0 10061801
16:00+19сз4537100 0.0 10051766
19:00+16сз0159100 0.0 100513
22:00+11ююз21682 0.0 100612
17 мая, пн
пн1701:00+9ююз22725 0.0 100616
04:00+8ю22750 0.0 100730
07:00+9ю24724 0.0 100798
10:00+18ююз35445 0.0 1006505
13:00+22з5730100 0.0 10051721
16:00+22зсз3632100 0.0 10051932
19:00+19с1156100 0.0 100511
22:00+14ююв1164100 0.0 100611
18 мая, вт
вт1801:00+13ююв2267100 0.0 100618
04:00+12ю2259100 0.0 100532
07:00+13ююв2364100 0.0 100575
10:00+18ююз3740100 0.0 1005601
13:00+22ююз4534100 0.0 10041479
16:00+23юз3333100 0.0 10021596
19:00+19ю2355100 0.0 100185
22:00+13ююз246997 0.0 100365
19 мая, ср
ср1901:00+11ю377586 0.0 1004164
04:00+10ю367494 0.0 1003155
07:00+12ю247197 0.0 1005126
10:00+18з245475 0.0 1006722
13:00+22сз454936 0.0 10071174
16:00+23сз344497 0.0 10071248
19:00+21сз116068 0.0 100818
22:00+16ю2171100 0.1 101017